FW1475 Weather Reports


time (UTC)temp
F
wind
direction
speed
knots
gust
knots
rain 1hr
in
rain 24hr
in
rain mn
in
humidity
%
barometer
mb
20260505122524 69 200 0.9 0.9 0.00 0.00 0.00 95 1007.3
20260505122021 69 178 1.7 1.7 0.00 0.00 0.00 95 1007.3
20260505121517 69 211 0.0 0.9 0.00 0.00 0.00 95 1007.4
20260505121504 69 208 0.0 1.7 0.00 0.00 0.00 95 1011.8
20260505121014 69 198 0.0 0.0 0.00 0.00 0.00 95 1007.2
20260505121004 69 170 0.9 1.7 0.00 0.00 0.00 95 1011.9
20260505120511 69 204 0.9 1.7 0.00 0.00 0.00 95 1007.4
20260505120504 69 201 0.9 1.7 0.00 0.00 0.00 95 1012.0
20260505120006 69 193 0.9 0.9 0.00 0.00 0.00 95 1007.0
20260505120004 69 186 0.9 1.7 0.00 0.00 0.00 95 1011.6
20260505115501 69 146 0.0 0.9 0.00 0.00 0.00 95 1007.0
20260505114959 69 219 0.0 0.9 0.00 0.00 0.00 95 1007.0
20260505114455 69 251 0.9 0.9 0.00 0.00 0.00 95 1007.1
20260505114004 69 177 0.9 1.7 0.00 0.00 0.00 95 1011.6
20260505113952 69 191 0.0 0.9 0.00 0.00 0.00 95 1007.0
20260505113449 69 205 0.9 0.9 0.00 0.00 0.00 95 1007.0
20260505113004 69 199 0.9 2.6 0.00 0.00 0.00 95 1011.8
20260505112944 69 168 0.0 0.9 0.00 0.00 0.00 95 1007.1
20260505112442 69 198 0.0 0.9 0.00 0.00 0.00 95 1007.3
20260505111938 68 189 0.0 0.0 0.00 0.00 0.00 95 1007.0
20260505111504 68 199 0.9 1.7 0.00 0.00 0.00 95 1011.7
20260505111432 68 175 0.9 0.9 0.00 0.00 0.00 95 1006.9
20260505111004 68 172 0.9 1.7 0.00 0.00 0.00 95 1011.7
20260505110929 68 168 0.0 0.9 0.00 0.00 0.00 95 1006.9
20260505110504 68 178 0.0 0.9 0.00 0.00 0.00 95 1011.4
20260505110426 68 185 0.0 0.9 0.00 0.00 0.00 95 1006.8
20260505101857 68 200 0.9 0.9 0.00 0.00 0.00 95 1006.7
20260505101504 68 152 1.7 4.3 0.00 0.00 0.00 94 1011.4
20260505101351 68 154 1.7 1.7 0.00 0.00 0.00 94 1006.8
20260505100848 68 186 0.9 1.7 0.00 0.00 0.00 95 1006.9
20260505100503 67 4 0.9 1.7 0.00 0.00 0.00 94 1011.5
20260505100344 68 141 0.0 0.9 0.00 0.00 0.00 94 1006.9
20260505100003 67 149 1.7 1.7 0.00 0.00 0.00 94 1011.6
20260505095840 68 144 1.7 1.7 0.00 0.00 0.00 94 1007.0
20260505095338 68 234 1.7 1.7 0.00 0.00 0.00 94 1007.1
20260505094834 68 144 0.9 1.7 0.00 0.00 0.00 94 1007.3
20260505094503 67 172 0.9 0.9 0.00 0.00 0.00 94 1011.9
20260505094331 68 174 0.9 0.9 0.00 0.00 0.00 94 1007.3
20260505094003 67 179 0.0 1.7 0.00 0.00 0.00 94 1011.8
20260505093826 67 183 0.0 0.9 0.00 0.00 0.00 94 1007.2
20260505093503 67 185 0.9 1.7 0.00 0.00 0.00 94 1012.0
20260505093324 67 161 0.9 0.9 0.00 0.00 0.00 94 1007.4
20260505093004 67 173 0.9 1.7 0.00 0.00 0.00 94 1012.0
20260505092820 68 165 0.9 0.9 0.00 0.00 0.00 94 1007.5
20260505092319 67 152 0.9 1.7 0.00 0.00 0.00 94 1007.5
20260505091816 67 145 0.9 0.9 0.00 0.00 0.00 94 1007.4
20260505091314 67 173 0.9 0.9 0.00 0.00 0.00 94 1007.6
20260505091004 67 197 0.0 0.9 0.00 0.00 0.00 94 1012.2
20260505090812 67 140 0.0 0.0 0.00 0.00 0.00 94 1007.5
20260505090504 67 197 0.0 0.0 0.00 0.00 0.00 94 1012.3
20260505090310 67 196 0.0 0.0 0.00 0.00 0.00 94 1007.5
20260505090004 67 194 0.0 0.0 0.00 0.00 0.00 94 1012.3
20260505085807 67 200 0.0 0.0 0.00 0.00 0.00 94 1007.6
20260505085305 67 173 0.0 0.0 0.00 0.00 0.00 94 1007.4
20260505084802 67 205 0.0 0.0 0.00 0.00 0.00 93 1007.5
20260505084301 67 201 0.0 0.0 0.00 0.00 0.00 93 1007.6
20260505084003 67 193 0.0 0.9 0.00 0.00 0.00 93 1012.3
20260505083757 67 206 0.0 0.0 0.00 0.00 0.00 93 1007.8
20260505083503 67 200 0.0 0.9 0.00 0.00 0.00 93 1012.3
20260505083254 67 205 0.9 0.9 0.00 0.00 0.00 93 1007.8
20260505083005 67 201 0.0 0.9 0.00 0.00 0.00 93 1012.3
20260505082750 67 205 0.0 0.9 0.00 0.00 0.00 93 1007.5
20260505082248 67 173 0.9 0.9 0.00 0.00 0.00 93 1007.6
20260505081743 67 214 0.9 0.9 0.00 0.00 0.00 92 1007.6
20260505081503 67 196 0.9 0.9 0.00 0.00 0.00 92 1012.4
20260505081241 67 188 0.9 0.9 0.00 0.00 0.00 92 1007.7
20260505081004 67 167 0.9 1.7 0.00 0.00 0.00 92 1012.6
20260505080738 67 162 0.0 0.9 0.00 0.00 0.00 92 1007.8
20260505080503 67 170 0.9 1.7 0.00 0.00 0.00 92 1012.5
20260505080233 67 176 0.0 0.9 0.00 0.00 0.00 92 1007.8
20260505075729 67 197 1.7 1.7 0.00 0.00 0.00 91 1008.0
20260505075226 67 166 0.0 0.0 0.00 0.00 0.00 91 1007.9
20260505074724 67 184 0.0 0.0 0.00 0.00 0.00 91 1008.0
20260505074504 67 215 0.0 0.0 0.00 0.00 0.00 91 1012.8
20260505074221 67 182 0.0 0.0 0.00 0.00 0.00 91 1008.2
20260505074004 67 192 0.0 1.7 0.00 0.00 0.00 91 1012.9
20260505073718 67 182 0.9 0.9 0.00 0.00 0.00 91 1008.2
20260505073503 67 227 0.0 1.7 0.00 0.00 0.00 91 1012.9
20260505073216 67 199 0.0 0.0 0.00 0.00 0.00 91 1008.1
20260505073004 67 178 0.0 1.7 0.00 0.00 0.00 91 1012.8
20260505072712 67 206 0.9 0.9 0.00 0.00 0.00 90 1008.0
20260505072208 68 164 0.9 1.7 0.00 0.00 0.00 90 1008.1
20260505071704 68 196 0.0 0.0 0.00 0.00 0.00 90 1008.1
20260505071201 68 191 0.0 0.0 0.00 0.00 0.00 90 1008.1
20260505071004 67 191 0.0 1.7 0.00 0.00 0.00 90 1012.7
20260505070659 68 225 1.7 1.7 0.00 0.00 0.00 89 1008.4
20260505070503 68 188 0.0 1.7 0.00 0.00 0.00 89 1012.9
20260505070154 68 205 0.0 0.0 0.00 0.00 0.00 89 1008.4
20260505070004 68 183 0.9 1.7 0.00 0.00 0.00 89 1012.8
20260505065650 68 248 0.0 0.9 0.00 0.00 0.00 89 1008.1
20260505065148 68 180 0.0 0.9 0.00 0.00 0.00 88 1008.3
20260505064644 68 189 0.9 0.9 0.00 0.00 0.00 88 1008.2
20260505064503 68 169 0.9 2.6 0.00 0.00 0.00 88 1013.1
20260505064143 68 173 0.9 0.9 0.00 0.00 0.00 88 1008.4
20260505064003 68 193 0.9 1.7 0.00 0.00 0.00 88 1013.3
20260505063640 68 150 0.9 1.7 0.00 0.00 0.00 88 1008.5
20260505063503 68 175 0.9 1.7 0.00 0.00 0.00 87 1013.2
20260505063136 68 182 0.9 1.7 0.00 0.00 0.00 87 1008.5
20260505063004 68 166 0.9 2.6 0.00 0.00 0.00 87 1013.1
20260505062633 68 208 1.7 2.6 0.00 0.00 0.00 87 1008.7
20260505062130 68 202 0.9 0.9 0.00 0.00 0.00 87 1008.8
20260505061627 68 190 0.9 1.7 0.00 0.00 0.00 87 1008.6
20260505061503 68 131 0.9 2.6 0.00 0.00 0.00 86 1013.1
20260505061125 68 179 0.9 0.9 0.00 0.00 0.00 86 1008.5
20260505061004 68 161 1.7 4.3 0.00 0.00 0.00 86 1013.2
20260505060622 68 42 0.9 0.9 0.00 0.00 0.00 86 1008.5
20260505060503 68 196 0.9 2.6 0.00 0.00 0.00 86 1013.1
20260505060119 68 165 0.9 0.9 0.00 0.00 0.00 86 1008.5
20260505055614 69 199 1.7 1.7 0.00 0.00 0.00 86 1008.8
20260505055111 69 172 0.0 0.9 0.00 0.00 0.00 85 1008.6
20260505054608 69 158 0.9 1.7 0.00 0.00 0.00 85 1008.9
20260505054504 69 183 0.9 1.7 0.00 0.00 0.00 85 1013.4
20260505054106 69 175 0.0 0.0 0.00 0.00 0.00 85 1008.7
20260505053603 69 219 1.7 1.7 0.00 0.00 0.00 85 1008.8
20260505053503 69 188 0.9 1.7 0.00 0.00 0.00 85 1013.4
20260505053059 69 189 0.9 0.9 0.00 0.00 0.00 84 1008.9
20260505053004 69 158 0.9 2.6 0.00 0.00 0.00 84 1013.5
20260505052556 69 140 0.9 1.7 0.00 0.00 0.00 84 1008.8
20260505052054 69 140 1.7 1.7 0.00 0.00 0.00 84 1008.7
20260505051551 69 178 0.9 0.9 0.00 0.00 0.00 84 1008.6
20260505051503 69 128 1.7 2.6 0.00 0.00 0.00 84 1013.5
20260505051049 69 187 0.0 0.9 0.00 0.00 0.00 84 1008.8
20260505051004 69 169 0.9 1.7 0.00 0.00 0.00 84 1013.5
20260505050547 69 199 0.0 0.9 0.00 0.00 0.00 84 1008.9
20260505041515 70 150 0.0 0.9 0.00 0.00 0.00 82 1009.1
20260505041504 70 156 0.9 2.6 0.00 0.00 0.00 82 1013.8
20260505041012 70 188 2.6 2.6 0.00 0.00 0.00 81 1009.1
20260505041004 70 174 0.9 2.6 0.00 0.00 0.00 82 1013.9
20260505040509 70 217 0.9 0.9 0.00 0.00 0.00 82 1009.2
20260505040504 70 178 0.9 0.9 0.00 0.00 0.00 82 1013.8
20260505040007 70 180 0.9 0.9 0.00 0.00 0.00 81 1009.1
20260505040004 70 175 0.9 1.7 0.00 0.00 0.00 82 1013.6
20260505035502 70 184 0.9 0.9 0.00 0.00 0.00 82 1009.2
20260505034959 70 164 0.9 0.9 0.00 0.00 0.00 81 1009.1
20260505034503 70 140 0.9 1.7 0.00 0.00 0.00 81 1013.8
20260505034455 70 184 0.0 0.9 0.00 0.00 0.00 81 1009.1
20260505034004 70 168 0.9 1.7 0.00 0.00 0.00 81 1013.6
20260505033953 70 145 0.9 1.7 0.00 0.00 0.00 81 1008.9
20260505033504 70 162 1.7 2.6 0.00 0.00 0.00 81 1013.7
20260505033449 70 204 0.0 0.9 0.00 0.00 0.00 80 1009.1
20260505032948 70 162 1.7 1.7 0.00 0.00 0.00 81 1009.2
20260505032445 70 136 1.7 1.7 0.00 0.00 0.00 80 1009.2
20260505031941 70 151 0.9 0.9 0.00 0.00 0.00 80 1008.9
20260505031504 70 190 0.9 1.7 0.00 0.00 0.00 80 1013.5
20260505031438 70 141 0.9 1.7 0.00 0.00 0.00 80 1009.0
20260505031004 70 175 0.0 0.9 0.00 0.00 0.00 79 1013.7
20260505030935 70 177 0.9 0.9 0.00 0.00 0.00 79 1009.1
20260505030431 70 186 0.9 0.9 0.00 0.00 0.00 79 1009.1
20260505030003 70 178 0.9 1.7 0.00 0.00 0.00 78 1013.7
20260505025926 70 173 0.9 1.7 0.00 0.00 0.00 78 1009.1
20260505025424 71 200 0.9 0.9 0.00 0.00 0.00 78 1009.1
20260505024923 71 213 0.0 0.0 0.00 0.00 0.00 78 1009.4
20260505024503 71 158 0.9 0.9 0.00 0.00 0.00 77 1013.8
20260505024420 71 157 0.9 0.9 0.00 0.00 0.00 77 1009.2
20260505024004 71 179 0.9 0.9 0.00 0.00 0.00 77 1013.9
20260505023917 71 179 0.9 0.9 0.00 0.00 0.00 77 1009.3
20260505023504 71 180 0.9 1.7 0.00 0.00 0.00 77 1013.6
20260505023414 71 180 0.9 0.9 0.00 0.00 0.00 77 1008.9
20260505023004 71 165 0.9 1.7 0.00 0.00 0.00 76 1013.6
20260505022911 71 165 0.9 0.9 0.00 0.00 0.00 76 1008.8
20260505022408 71 192 0.9 0.9 0.00 0.00 0.00 75 1009.1
20260505021905 72 142 0.9 1.7 0.00 0.00 0.00 75 1009.1
20260505021504 72 183 0.9 1.7 0.00 0.00 0.00 75 1013.6
20260505021401 72 168 0.0 0.9 0.00 0.00 0.00 75 1009.0
20260505021004 72 189 0.9 2.6 0.00 0.00 0.00 74 1013.5
20260505020857 72 189 0.9 0.9 0.00 0.00 0.00 74 1008.9
20260505020504 72 177 0.9 2.6 0.00 0.00 0.00 74 1013.0
20260505020353 72 160 0.9 0.9 0.00 0.00 0.00 74 1008.4
20260505015850 72 193 0.9 1.7 0.00 0.00 0.00 74 1008.3
20260505015347 72 199 0.0 0.0 0.00 0.00 0.00 74 1008.2
20260505014845 72 181 0.0 0.0 0.00 0.00 0.00 74 1008.2
20260505014504 72 192 0.9 1.7 0.00 0.00 0.00 73 1013.0
20260505014341 72 194 0.9 0.9 0.00 0.00 0.00 73 1008.2
20260505014004 73 183 0.0 1.7 0.00 0.00 0.00 73 1012.9
20260505013838 73 194 0.0 0.9 0.00 0.00 0.00 73 1008.3
20260505013504 73 153 1.7 2.6 0.00 0.00 0.00 72 1013.0
20260505013335 73 156 1.7 2.6 0.00 0.00 0.00 72 1008.4
20260505013004 73 185 0.9 1.7 0.00 0.00 0.00 72 1012.9
20260505012834 73 187 0.9 0.9 0.00 0.00 0.00 72 1008.3
20260505012331 73 189 0.0 0.0 0.00 0.00 0.00 72 1008.3
20260505011827 73 169 0.0 0.9 0.00 0.00 0.00 71 1008.2
20260505011324 73 160 0.9 1.7 0.00 0.00 0.00 71 1008.2
20260505011004 74 171 0.0 1.7 0.00 0.00 0.00 70 1012.9
20260505010820 74 182 0.0 0.0 0.00 0.00 0.00 71 1008.1
20260505010504 74 156 0.9 0.9 0.00 0.00 0.00 70 1013.0
20260505010316 74 188 0.9 0.9 0.00 0.00 0.00 69 1008.4
20260505005812 74 147 0.9 1.7 0.00 0.00 0.00 69 1008.5
20260505005309 75 187 0.0 0.9 0.00 0.00 0.00 68 1008.3
20260505004807 75 162 0.9 0.9 0.00 0.00 0.00 68 1008.4
20260505004504 75 177 0.0 0.0 0.00 0.00 0.00 68 1013.0
20260505004302 75 200 0.0 0.0 0.00 0.00 0.00 67 1008.5
20260505004004 75 187 0.0 1.7 0.00 0.00 0.00 67 1013.2
20260505003800 75 195 0.0 0.0 0.00 0.00 0.00 67 1008.4
20260505003258 75 208 0.9 0.9 0.00 0.00 0.00 67 1008.4
20260505003004 75 182 0.0 1.7 0.00 0.00 0.00 66 1013.2
20260505002754 75 184 0.0 0.0 0.00 0.00 0.00 66 1008.5
20260505002251 76 158 0.9 0.9 0.00 0.00 0.00 65 1008.6
20260505001749 76 209 0.9 0.9 0.00 0.00 0.00 65 1008.7
20260505001504 76 174 0.9 1.7 0.00 0.00 0.00 64 1013.1
20260505001246 76 213 0.9 0.9 0.00 0.00 0.00 64 1008.5
20260505001004 76 178 0.9 1.7 0.00 0.00 0.00 65 1013.1
20260505000743 76 201 0.0 0.0 0.00 0.00 0.00 65 1008.5
20260505000504 76 171 1.7 1.7 0.00 0.00 0.00 63 1013.4
20260505000241 77 156 1.7 1.7 0.00 0.00 0.00 63 1008.6
20260505000004 77 179 0.0 1.7 0.00 0.00 0.00 64 1013.4
20260504235737 77 173 0.9 0.9 0.00 0.00 0.00 64 1008.8
20260504235233 77 174 0.9 0.9 0.00 0.00 0.00 63 1008.7
20260504234731 77 218 1.7 1.7 0.00 0.00 0.00 63 1008.6
20260504234504 77 207 0.9 1.7 0.00 0.00 0.00 63 1013.5
20260504234228 77 202 0.0 0.9 0.00 0.00 0.00 63 1008.8
20260504234004 77 183 0.9 1.7 0.00 0.00 0.00 63 1013.3
20260504233724 77 175 0.0 0.9 0.00 0.00 0.00 63 1008.6
20260504233504 77 176 0.9 1.7 0.00 0.00 0.00 63 1013.3
20260504233220 77 197 0.9 1.7 0.00 0.00 0.00 62 1008.8
20260504233003 77 162 0.9 1.7 0.00 0.00 0.00 62 1013.5
20260504232717 78 208 0.0 0.0 0.00 0.00 0.00 62 1009.0
20260504232214 78 213 0.0 0.0 0.00 0.00 0.00 62 1009.0
20260504231711 78 244 0.9 1.7 0.00 0.00 0.00 61 1008.9
20260504231504 78 177 0.9 1.7 0.00 0.00 0.00 61 1013.6
20260504231207 78 157 0.9 1.7 0.00 0.00 0.00 61 1009.0
20260504230703 78 155 0.9 0.9 0.00 0.00 0.00 60 1009.2
20260504230504 78 192 0.0 0.9 0.00 0.00 0.00 59 1013.7
20260504230202 78 184 0.0 0.0 0.00 0.00 0.00 60 1009.0
20260504230004 79 216 0.0 2.6 0.00 0.00 0.00 59 1013.9
20260504225700 79 214 1.7 2.6 0.00 0.00 0.00 58 1009.2
20260504225156 79 195 0.0 0.9 0.00 0.00 0.00 59 1009.4
20260504224653 79 197 0.9 0.9 0.00 0.00 0.00 58 1009.5
20260504224504 79 218 0.0 2.6 0.00 0.00 0.00 58 1014.1
20260504224150 79 196 0.9 0.9 0.00 0.00 0.00 58 1009.3
20260504224004 80 223 1.7 4.3 0.00 0.00 0.00 57 1013.9
20260504223647 80 218 0.0 0.9 0.00 0.00 0.00 58 1009.4
20260504223504 79 163 0.9 1.7 0.00 0.00 0.00 57 1014.0
20260504223142 80 214 0.9 1.7 0.00 0.00 0.00 57 1009.3
20260504223004 80 202 0.9 1.7 0.00 0.00 0.00 57 1014.1
20260504222640 80 244 1.7 1.7 0.00 0.00 0.00 57 1009.7
20260504222137 80 181 0.9 0.9 0.00 0.00 0.00 57 1009.5
20260504221634 80 144 1.7 1.7 0.00 0.00 0.00 55 1009.6
20260504221131 80 198 2.6 2.6 0.00 0.00 0.00 55 1009.8
20260504221004 80 182 0.9 1.7 0.00 0.00 0.00 55 1014.4
20260504220627 80 190 0.9 0.9 0.00 0.00 0.00 56 1009.8
20260504220125 80 184 0.9 0.9 0.00 0.00 0.00 54 1009.7
20260504220003 80 210 0.9 4.3 0.00 0.00 0.00 54 1014.3
20260504215621 80 239 1.7 1.7 0.00 0.00 0.00 52 1010.0
20260504215119 80 210 0.0 0.0 0.00 0.00 0.00 54 1010.1
20260504214614 80 228 0.0 0.9 0.00 0.00 0.00 53 1010.1
20260504214503 80 150 1.7 2.6 0.00 0.00 0.00 53 1014.7
20260504214111 80 165 0.9 1.7 0.00 0.00 0.00 53 1010.0
20260504214004 80 166 1.7 4.3 0.00 0.00 0.00 52 1014.8
20260504213607 80 206 0.0 0.0 0.00 0.00 0.00 54 1010.4
20260504213503 80 198 0.9 2.6 0.00 0.00 0.00 53 1014.9
20260504213104 80 119 1.7 2.6 0.00 0.00 0.00 52 1010.2
20260504212600 80 231 0.0 0.9 0.00 0.00 0.00 52 1010.3
20260504212058 81 16 0.0 0.9 0.00 0.00 0.00 51 1010.5
20260504211554 81 216 0.0 0.0 0.00 0.00 0.00 50 1010.6
20260504211504 82 132 0.9 2.6 0.00 0.00 0.00 50 1015.2
20260504211051 81 221 0.9 0.9 0.00 0.00 0.00 48 1010.6
20260504210549 81 239 1.7 1.7 0.00 0.00 0.00 50 1010.6
20260504210504 80 188 0.9 2.6 0.00 0.00 0.00 51 1015.3
20260504210045 80 131 1.7 2.6 0.00 0.00 0.00 49 1010.7
20260504210004 80 208 0.9 4.3 0.00 0.00 0.00 50 1015.4
20260504205543 80 193 0.9 1.7 0.00 0.00 0.00 48 1010.9
20260504205041 80 190 2.6 2.6 0.00 0.00 0.00 47 1010.9
20260504204538 81 147 0.9 1.7 0.00 0.00 0.00 47 1011.1
20260504204503 81 214 0.9 1.7 0.00 0.00 0.00 49 1015.6
20260504204038 81 226 0.9 0.9 0.00 0.00 0.00 47 1011.3
20260504203535 80 209 0.9 0.9 0.00 0.00 0.00 51 1011.0
20260504203503 80 176 0.0 0.9 0.00 0.00 0.00 49 1015.9
20260504203032 81 196 0.9 0.9 0.00 0.00 0.00 48 1011.4
20260504202527 82 137 1.7 1.7 0.00 0.00 0.00 47 1011.4
20260504202025 82 262 0.9 1.7 0.00 0.00 0.00 47 1011.3
20260504201522 81 264 0.0 0.9 0.00 0.00 0.00 47 1011.4
20260504201504 81 218 0.0 0.9 0.00 0.00 0.00 48 1016.1
20260504201020 81 218 0.0 0.9 0.00 0.00 0.00 49 1011.8
20260504201004 81 189 0.0 1.7 0.00 0.00 0.00 47 1016.4
20260504200515 81 157 1.7 1.7 0.00 0.00 0.00 48 1011.9
20260504200503 80 190 0.9 1.7 0.00 0.00 0.00 49 1016.3
20260504200013 80 240 0.0 0.0 0.00 0.00 0.00 49 1011.7
20260504195509 80 231 0.0 0.9 0.00 0.00 0.00 49 1011.8
20260504195005 80 124 2.6 4.3 0.00 0.00 0.00 48 1011.9
20260504194504 79 191 0.0 2.6 0.00 0.00 0.00 52 1016.7
20260504194502 80 189 0.9 0.9 0.00 0.00 0.00 49 1012.2
20260504193957 80 259 2.6 2.6 0.00 0.00 0.00 47 1012.4
20260504193503 79 234 0.9 2.6 0.00 0.00 0.00 49 1017.0
20260504193455 79 235 1.7 1.7 0.00 0.00 0.00 49 1012.4
20260504193003 80 199 0.9 1.7 0.00 0.00 0.00 49 1017.1
20260504192953 80 178 0.9 0.9 0.00 0.00 0.00 50 1012.4
20260504192450 80 227 0.9 1.7 0.00 0.00 0.00 54 1012.4
20260504191949 79 217 0.0 0.0 0.00 0.00 0.00 51 1012.5
20260504191504 79 237 0.9 1.7 0.00 0.00 0.00 48 1017.2
20260504191447 79 235 0.9 0.9 0.00 0.00 0.00 49 1012.5
20260504190941 79 221 0.9 0.9 0.00 0.00 0.00 49 1012.6
20260504190504 79 212 0.0 1.7 0.00 0.00 0.00 49 1017.3
20260504190438 79 230 0.9 1.7 0.00 0.00 0.00 50 1012.8
20260504190004 79 232 0.9 1.7 0.00 0.00 0.00 52 1017.5
20260504185934 79 221 0.0 0.9 0.00 0.00 0.00 51 1012.8
20260504185432 79 195 0.0 0.9 0.00 0.00 0.00 55 1013.2
20260504184928 78 188 1.7 1.7 0.00 0.00 0.00 52 1013.1
20260504184504 78 201 0.9 2.6 0.00 0.00 0.00 52 1017.6
20260504184423 78 207 0.9 0.9 0.00 0.00 0.00 52 1013.0
20260504184003 78 236 0.9 2.6 0.00 0.00 0.00 54 1017.6
20260504183920 77 180 0.0 0.9 0.00 0.00 0.00 55 1013.0
20260504183417 78 187 2.6 2.6 0.00 0.00 0.00 50 1013.4
20260504183003 78 234 2.6 6.1 0.00 0.00 0.00 52 1017.8
20260504182915 78 225 3.5 4.3 0.00 0.00 0.00 52 1013.3
20260504182412 78 324 0.9 1.7 0.00 0.00 0.00 52 1013.3
20260504181908 77 195 2.6 2.6 0.00 0.00 0.00 52 1013.5
20260504181504 77 201 0.9 1.7 0.00 0.00 0.00 54 1018.1
20260504181406 77 224 0.9 1.7 0.00 0.00 0.00 54 1013.6
20260504181003 77 169 0.9 1.7 0.00 0.00 0.00 53 1018.3
20260504180904 77 157 0.9 0.9 0.00 0.00 0.00 53 1013.8
20260504180503 77 182 1.7 4.3 0.00 0.00 0.00 53 1018.3
20260504180403 77 182 1.7 4.3 0.00 0.00 0.00 53 1013.7
20260504180004 77 231 1.7 4.3 0.00 0.00 0.00 51 1018.4
20260504175901 77 243 1.7 1.7 0.00 0.00 0.00 51 1013.9
20260504175357 78 202 1.7 1.7 0.00 0.00 0.00 52 1013.9
20260504174855 77 171 0.9 1.7 0.00 0.00 0.00 53 1014.0
20260504174352 77 212 0.0 0.9 0.00 0.00 0.00 51 1014.1
20260504174003 77 228 0.9 1.7 0.00 0.00 0.00 51 1018.3
20260504173849 77 229 0.0 0.9 0.00 0.00 0.00 50 1013.8
20260504173503 76 206 0.9 4.3 0.00 0.00 0.00 53 1018.5
20260504173346 76 219 0.9 0.9 0.00 0.00 0.00 53 1014.0
20260504173004 76 229 1.7 7.0 0.00 0.00 0.00 52 1018.8
20260504172843 77 225 1.7 2.6 0.00 0.00 0.00 52 1014.3
20260504172340 76 165 1.7 1.7 0.00 0.00 0.00 50 1014.3
20260504171835 77 204 0.9 1.7 0.00 0.00 0.00 53 1014.2
20260504171504 76 193 0.9 1.7 0.00 0.00 0.00 54 1019.0
20260504171333 76 192 0.9 1.7 0.00 0.00 0.00 54 1014.5
20260504171004 76 244 0.9 1.7 0.00 0.00 0.00 53 1019.2
20260504170830 76 240 0.9 0.9 0.00 0.00 0.00 52 1014.7
20260504170504 77 241 1.7 2.6 0.00 0.00 0.00 53 1019.1
20260504170327 77 205 0.9 0.9 0.00 0.00 0.00 56 1014.5
20260504160245 73 220 0.9 1.7 0.00 0.00 0.00 59 1014.9
20260504151004 71 162 0.9 1.7 0.00 0.00 0.00 65 1019.6
20260504150710 71 220 0.9 0.9 0.00 0.00 0.00 64 1015.1
20260504150207 71 121 1.7 1.7 0.00 0.00 0.00 63 1015.2
20260504141136 67 130 0.0 0.0 0.00 0.00 0.00 73 1015.4
20260504141004 66 212 0.0 0.9 0.00 0.00 0.00 73 1019.8
20260504140633 66 193 0.0 0.9 0.00 0.00 0.00 73 1015.5
20260504140504 66 233 0.9 1.7 0.00 0.00 0.00 75 1019.7
20260504140129 66 230 0.9 1.7 0.00 0.00 0.00 74 1015.1
20260504130557 61 187 0.0 0.0 0.00 0.00 0.00 84 1015.2
20260504130504 61 202 0.0 0.0 0.00 0.00 0.00 85 1019.6